TimeEDT,TemperatureF,Dew PointF,Humidity,Sea Level PressureIn,VisibilityMPH,Wind Direction,Wind SpeedMPH,Gust SpeedMPH,PrecipitationIn,Events,Conditions,WindDirDegrees,DateUTC
12:53 AM,64.0,62.1,93,29.93,7.0,Calm,Calm,-,N/A,,Clear,0,2012-10-06 04:53:00
1:53 AM,64.0,60.1,87,29.92,8.0,WSW,5.8,-,N/A,,Clear,250,2012-10-06 05:53:00
2:53 AM,63.0,57.9,84,29.90,10.0,WSW,3.5,-,N/A,,Clear,240,2012-10-06 06:53:00
3:53 AM,61.0,57.9,90,29.90,9.0,South,3.5,-,N/A,,Clear,190,2012-10-06 07:53:00
4:53 AM,61.0,57.9,90,29.89,8.0,SSW,3.5,-,N/A,,Clear,210,2012-10-06 08:53:00
5:53 AM,60.1,57.9,93,29.88,7.0,Calm,Calm,-,N/A,,Clear,0,2012-10-06 09:53:00
6:53 AM,61.0,59.0,93,29.87,8.0,SSW,4.6,-,N/A,,Clear,210,2012-10-06 10:53:00
7:53 AM,64.0,61.0,90,29.87,8.0,SW,6.9,-,N/A,,Clear,220,2012-10-06 11:53:00
8:53 AM,66.9,62.1,84,29.86,9.0,SW,10.4,-,N/A,,Clear,220,2012-10-06 12:53:00
10:53 AM,72.0,60.1,66,29.84,10.0,SW,16.1,23.0,N/A,,Clear,220,2012-10-06 14:53:00
11:53 AM,73.0,62.1,68,29.83,10.0,SSW,12.7,21.9,N/A,,Clear,210,2012-10-06 15:53:00
12:53 PM,73.0,62.1,68,29.79,10.0,SSW,18.4,24.2,N/A,,Clear,210,2012-10-06 16:53:00
1:53 PM,73.9,64.0,71,29.77,10.0,SW,17.3,21.9,N/A,,Clear,220,2012-10-06 17:53:00
2:53 PM,71.1,64.0,78,29.77,10.0,SSW,19.6,25.3,N/A,,Overcast,210,2012-10-06 18:53:00
3:53 PM,71.1,64.0,78,29.78,10.0,SW,9.2,-,N/A,,Overcast,230,2012-10-06 19:53:00
4:53 PM,72.0,57.0,59,29.79,10.0,West,9.2,23.0,N/A,,Overcast,280,2012-10-06 20:53:00
5:53 PM,64.0,53.1,67,29.85,10.0,NNW,11.5,24.2,N/A,,Clear,330,2012-10-06 21:53:00
6:53 PM,61.0,50.0,67,29.88,10.0,NNW,11.5,-,N/A,,Clear,330,2012-10-06 22:53:00
7:53 PM,57.9,46.9,67,29.92,10.0,NW,9.2,-,N/A,,Clear,320,2012-10-06 23:53:00
8:53 PM,57.0,45.0,64,29.94,10.0,NW,3.5,-,N/A,,Clear,320,2012-10-07 00:53:00
9:53 PM,55.9,43.0,62,29.96,10.0,NW,6.9,-,N/A,,Clear,320,2012-10-07 01:53:00
10:53 PM,54.0,43.0,66,29.99,10.0,NW,4.6,-,N/A,,Clear,320,2012-10-07 02:53:00
11:53 PM,55.0,42.1,62,30.00,10.0,NNW,9.2,-,N/A,,Clear,330,2012-10-07 03:53:00